Location: Rioux
(40.7500°S, 175.7500°E)
Time: 10:23:36
(UTC+00:00)

Cosmos 1943 - Pass Details

Date: 12 June 2024
Orbit: 834 x 847 km, 71.0° (Epoch: 20 July)

Event Time Altitude Azimuth Distance (km) Brightness Sun altitude
Exits shadow 16:36:05 21° 17° (NNE) 1,830 5.1 -33.7°
Maximum altitude 16:39:25 40° 75° (ENE) 1,231 4.4 -33.0°
Drops below altitude 10° 16:44:42 10° 142° (SE) 2,492 6.0 -32.0°
Sets 16:47:18 0° 149° (SSE) 3,437 6.7 -31.5°
